Location: Helsinki
(60.1699°N, 24.9384°E)
Time: 19:52:38
(UTC+03:00)

A-11 Canister half - Pass Details

Date: 31 May 2024
Orbit: 1525 x 1683 km, 47.3° (Epoch: 14 June)

Event Time Altitude Azimuth Distance (km) Brightness Sun altitude
Rises 01:01:37 0° 269° (W) 4,714 11.6 -7.8°
Reaches altitude 10° 01:05:04 10° 260° (W) 3,748 11.0 -7.8°
Maximum altitude 01:12:58 31° 203° (SSW) 2,507 9.7 -7.9°
Drops below altitude 10° 01:21:05 10° 146° (SE) 3,846 10.6 -7.9°
Sets 01:24:41 0° 137° (SE) 4,854 11.2 -7.9°
